#timestamp,LO_Frequency,Hit,StdDev 
1634493615.1,286047007.3,Y
1634493635.9,286047007.2,P
1634493655.7,286047001.5,N
1634493675.5,286047001.6,N
1634493695.4,286047000.9,N
1634493715.2,286046999.5,N
1634493735.1,286046999.5,N
1634493736.0,286046999.5,N
1634493755.8,286046997.1,N
1634493775.6,286046995.3,N
1634493795.5,286046999.6,N
1634493815.3,286046997.7,N
1634493835.1,286047001.0,N
1634493855.9,286047001.1,N
1634493875.7,286047000.7,N
1634493895.6,286046998.9,N
1634493915.4,286046999.1,N
1634493935.2,286046998.9,N
1634493955.1,286046999.3,N
1634493956.0,286046999.3,N
1634493975.8,286046996.5,N
1634493995.6,286046996.6,N
1634494015.5,286046999.1,N
1634494065.4,286046999.3,E
1634494075.3,286046998.9,N
1634494095.1,286046998.5,P
1634494115.9,286047001.1,P
1634494135.7,286047000.9,N
1634494155.5,286047004.5,Y
1634494175.4,286047004.2,P
1634494195.2,286047001.9,N
1634494215.0,286047000.6,N
1634494215.9,286047000.6,N
1634494235.8,286046999.7,N
1634494255.6,286047001.9,N
1634494275.5,286047000.5,N
1634494295.3,286047000.2,N
1634494315.1,286047002.6,N
1634494335.9,286047005.4,Y
1634494355.7,286047001.3,P
1634494375.5,286046999.7,P
1634494395.4,286047001.5,N
1634494415.2,286047001.4,N
1634494435.1,286047001.5,N
1634494436.0,286047001.5,N
1634494455.8,286047001.5,N
1634494475.6,286047002.6,Y
1634494495.5,286046998.2,P
1634494515.3,286046996.9,N
1634494535.2,286046997.0,N
1634494555.9,286046999.1,N
1634494575.7,286046999.1,N
1634494595.6,286046999.4,N
1634494615.4,286046998.4,N
1634494635.2,286047001.2,N
1634494655.1,286047000.5,N
1634494656.0,286047000.5,N
1634494675.8,286047001.0,N
1634494695.7,286046999.4,N
1634494715.5,286046999.4,N
1634494735.3,286046999.0,N
1634494755.2,286046999.2,N
1634494775.0,286046998.4,N
1634494775.9,286046998.4,N
1634494795.8,286047001.1,N
1634494815.6,286046998.3,N
1634494835.4,286046997.3,N
1634494855.3,286046996.8,N
1634494875.1,286046995.4,Y
1634494895.8,286046997.5,P
1634494915.7,286046996.7,P
1634494935.5,286046999.6,N
1634494955.4,286046999.3,N
1634494975.2,286046999.6,N
1634494995.0,286046999.0,N
1634494995.9,286046999.0,N
1634495015.8,286046999.1,N
1634495035.6,286046997.7,N
1634495055.5,286046998.4,N
1634495075.3,286046999.3,N
1634495095.1,286047001.2,N
1634495115.9,286046998.5,N
1634495135.7,286047000.6,N
1634495155.5,286046998.5,N
1634495175.4,286046997.0,N
1634495195.2,286046997.3,N
1634495215.1,286046999.3,N
1634495216.0,286046999.3,N
1634495235.8,286047000.6,N
1634495255.6,286046999.7,N
1634495275.5,286047001.4,N
1634495295.3,286047002.8,N
1634495315.1,286047002.0,N
1634495335.9,286047002.0,N
1634495355.7,286047001.4,N
1634495375.6,286046999.9,N
1634495395.4,286046998.4,N
1634495415.2,286047000.7,N
1634495435.1,286046998.2,N
1634495436.0,286046998.2,N
1634495455.8,286047000.5,N
1634495475.6,286047001.0,N
1634495495.5,286046998.4,N
1634495515.3,286047000.7,N
1634495535.2,286046998.8,N
1634495555.9,286046996.7,N
1634495575.7,286046999.5,N
1634495595.6,286046997.3,N
1634495615.4,286046999.1,N
1634495635.2,286046994.9,Y
1634495655.1,286046998.4,P
1634495656.0,286046998.4,N
1634495675.8,286047001.2,N
1634495695.7,286046999.3,N
1634495715.5,286046997.5,N
1634495735.3,286046997.2,N
1634495755.2,286046999.1,N
1634495775.0,286047001.1,N
1634495775.9,286047001.1,N
1634495795.8,286047002.4,N
1634495815.6,286047002.5,N
1634495835.4,286047002.2,N
1634495855.3,286047000.6,N
1634495875.1,286046999.7,N
1634495895.8,286047000.1,N
1634495915.7,286047000.3,N
1634495935.5,286047001.9,N
1634495955.4,286047003.5,N
1634495975.2,286047005.8,Y
1634495995.0,286047004.8,P
1634495995.9,286047004.8,N
1634496015.8,286047007.5,P
1634496035.6,286047009.0,Y
1634496055.5,286047003.2,P
1634496075.3,286047001.9,P
1634496095.1,286046999.2,N
1634496115.9,286046996.6,N
1634496135.7,286046995.3,N
1634496155.5,286046997.5,N
1634496175.4,286046996.8,N
1634496195.2,286046997.1,N
1634496215.1,286046997.4,N
1634496216.0,286046997.4,N
1634496235.8,286046997.0,N
1634496255.6,286046999.6,N
1634496275.5,286046997.4,N
1634496295.3,286046996.6,N
1634496315.1,286046998.4,N
1634496335.9,286046999.1,N
1634496355.7,286046996.9,N
1634496375.6,286046997.1,N
1634496395.4,286046997.1,N
1634496415.2,286046999.4,N
1634496435.1,286046999.2,N
1634496436.0,286046999.2,N
1634496455.8,286046999.3,N
1634496475.7,286046997.3,N
1634496495.5,286046999.5,N
1634496515.3,286046999.0,N
1634496535.2,286046998.7,N
1634496555.0,286046996.6,N
1634496555.9,286046996.6,N
1634496575.8,286046998.9,N
1634496595.6,286046998.7,N
1634496615.4,286046996.6,N
1634496635.3,286046999.4,N
1634496655.1,286046996.6,N
1634496675.8,286046997.4,N
1634496695.7,286046998.6,N
1634496715.5,286046998.7,N
1634496735.4,286046998.3,N
1634496755.2,286046998.3,N
1634496775.0,286046998.8,N
1634496775.9,286046998.8,N
1634496795.8,286046999.2,N
1634496815.6,286046999.4,N
1634496835.5,286046997.9,N
1634496855.3,286046995.1,Y
1634496875.1,286046997.1,P
1634496895.9,286047001.0,N
1634496915.7,286047002.3,N
1634496935.5,286047000.2,N
1634496955.4,286047000.4,N
1634496975.2,286047001.1,N
1634496995.1,286046998.1,N
1634496996.0,286046998.1,N
1634497015.8,286047000.8,N
1634497035.6,286047000.7,N
1634497055.5,286047002.2,N
1634497075.3,286047000.1,N
1634497095.1,286046999.8,N
1634497115.9,286047001.2,N
1634497135.7,286046998.3,N
1634497155.6,286046998.5,N
1634497175.4,286046998.9,N
1634497195.2,286047000.8,N
